Regional Weather Roundup
Issued by NWS Sioux Falls, SD

Home | Current Version | Previous Version | Graphics & Text | Print | Product List | Glossary Off
Versions: 1 2 3 4 5 6 7 8 9 10 11 12 13 14 15 16 17 18 19 20 21 22 23 24 25 26 27 28 29 30 31 32 33 34 35 36 37 38 39 40 41 42 43 44 45 46 47 48 49 50

000
ASUS43 KFSD 031210
RWRFSD

WEATHER ROUNDUP FOR SE SOUTH DAKOTA/SW MINNESOTA/NW IOWA
NATIONAL WEATHER SERVICE SIOUX FALLS SD
700 AM CDT MON AUG 03 2015

NOTE: "FAIR" INDICATES FEW OR NO CLOUDS BELOW 12,000 FEET WITH NO
SIGNIFICANT WEATHER AND OR OBSTRUCTIONS TO VISIBILITY.


SDZ038>040-050-052>070-031300-
SOUTHEAST SOUTH DAKOTA

CITY           SKY/WX    TMP DP  RH WIND       PRES   REMARKS
BROOKINGS      CLEAR     54  50  87 CALM      29.99S VSB 1
CHAMBERLAIN    PTCLDY    61  57  87 NE5       29.99R
6HR MIN TEMP:  54; 6HR MAX TEMP:  63;

HURON          CLEAR     56  54  93 W5        29.97R
6HR MIN TEMP:  55; 6HR MAX TEMP:  62;

MADISON        FAIR      55  55 100 CALM      29.99R
MITCHELL       CLEAR     58  57  97 SW5       29.99R
6HR MIN TEMP:  55; 6HR MAX TEMP:  64;

SIOUX FALLS    PTCLDY    58  56  93 CALM      29.98R
6HR MIN TEMP:  56; 6HR MAX TEMP:  63;

WINNER         FAIR      61  56  83 E3        29.99R
YANKTON        CLEAR     59  55  88 CALM      29.98R
$$

MNZ071-072-080-081-089-090-097-098-031300-
SOUTHWEST MINNESOTA

CITY           SKY/WX    TMP DP  RH WIND       PRES   REMARKS
FAIRMONT       CLEAR     55  48  76 CALM      29.95R
JACKSON        CLEAR     54  52  94 W3        29.97R
LUVERNE        CLEAR     54  52  94 CALM      29.98S
MARSHALL       CLEAR     55  46  71 NW7       29.95R
6HR MIN TEMP:  54; 6HR MAX TEMP:  59;

MONTEVIDEO     CLEAR     57  52  82 N6        29.95R
PIPESTONE      CLEAR     55  52  88 SW5       29.98R
REDWOOD FALLS  CLEAR     56  53  90 W7        29.93R
TRACY          CLEAR     59  52  77 W7        29.96R
WINDOM         CLEAR     55  52  88 CALM      29.96R
WORTHINGTON    CLEAR     54  48  82 SW6       29.98R
$$

IAZ001>003-012>014-020>022-031-032-NEZ013-014-SDZ071-031300-
NORTHWEST IOWA

CITY           SKY/WX    TMP DP  RH WIND       PRES   REMARKS
CHEROKEE       CLEAR     58  58 100 CALM      29.97F
DENISON        CLEAR     63  61  94 CALM      29.95R
ESTHERVILLE    CLEAR     53  52  96 SW6       29.97R
LE MARS        CLEAR     57  57 100 CALM      29.98F
ORANGE CITY    CLEAR     61  54  77 CALM      29.98S
SHELDON        CLEAR     54  54 100 CALM      29.97S
SIOUX CITY     NOT AVBL
SPENCER        CLEAR     55  51  86 CALM      29.98R
6HR MIN TEMP:  52; 6HR MAX TEMP:  63;

STORM LAKE     CLEAR     59  55  88 CALM      29.98S
$$

ABBREVIATIONS USED IN REMARKS
   TC - TEMPERATURE IN CELSIUS
  WCI - WIND CHILL INDEX
   HX - HEAT INDEX
  VSB - VISIBILITY




USA.gov is the U.S. government's official web portal to all federal, state and local government web resources and services.